Vestborg — E5U2070 — position and weather

sailwx.info

Track history (hours):
 
Tides and Currents Weather Stations Pressure Air Temp Water Temp Dewpoint Dewpoint Depression Visibility Wind Speed Wind Dir Waves Ship Positions

Vestborg

Last reported at 2014-Jul-25 01:22 UTC. Time now 2014-Aug-02 08:45 UTC.
Position N 67°44' E 014°31'.
Warning: this ship's position is 8 days out of date.

Length 66 m; draft 3.5 m.

Type: Cargo ship. MMSI: 518120000.

Date/timePositionNaut miles runAvg speedWind from/ knotsBaromVisibWave heightAir tempDewpointWater temp
2014-Jul-25 01:22N 67°44' E 014°31'7 9.0
2014-Jul-25 00:33N 67°37' E 014°31'9 9.0
2014-Jul-24 23:33N 67°28' E 014°28'9 8.7
2014-Jul-24 22:33N 67°20' E 014°20'9 8.8
2014-Jul-24 21:34N 67°13' E 014°08'18 1.5
2014-Jul-24 09:05N 66°59' E 013°36'27 3.1
2014-Jul-24 00:16N 66°36' E 013°00'0 0.1
2014-Jul-23 21:08N 66°36' E 012°60'4 5.4
2014-Jul-23 20:23N 66°32' E 012°59'7 8.7
2014-Jul-23 19:34N 66°25' E 012°59'20 8.3
2014-Jul-23 17:06N 66°05' E 012°42'6 8.5
2014-Jul-23 16:21N 66°00' E 012°32'46 7.7
2014-Jul-23 10:21N 65°17' E 011°58'8 8.5
2014-Jul-23 09:22N 65°09' E 011°50'8 8.4
2014-Jul-23 08:27N 65°02' E 011°43'8 8.3
2014-Jul-23 07:33N 64°57' E 011°29'9 8.8
2014-Jul-23 06:33N 64°51' E 011°14'56712.5
2014-Jul-21 09:18N 55°36' E 007°24'30152.1
2014-Jul-21 03:31N 60°29' E 005°15'10 8.2
2014-Jul-21 02:18N 60°19' E 005°12'49 8.2
2014-Jul-20 20:18N 59°30' E 005°13'15 8.5
2014-Jul-20 18:30N 59°15' E 005°21'8 8.9
2014-Jul-20 17:33N 59°07' E 005°22'8 8.4
2014-Jul-20 16:33N 58°58' E 005°20'9 9.5
2014-Jul-20 15:33N 58°49' E 005°23'10 9.9
2014-Jul-20 14:33N 58°39' E 005°28'1010.3
2014-Jul-20 13:33N 58°30' E 005°36'10 9.7
2014-Jul-20 12:33N 58°22' E 005°47'9 9.3
2014-Jul-20 11:33N 58°15' E 005°58'53 8.5
2014-Jul-20 05:23N 57°23' E 006°18'9 8.4
2014-Jul-20 04:22N 57°15' E 006°23'11310.0
2014-Jul-19 17:04N 55°30' E 007°34'8 9.0
2014-Jul-19 16:13N 55°26' E 007°46'7 8.7
2014-Jul-19 15:21N 55°25' E 007°59'16 3.7
2014-Jul-19 11:07N 55°28' E 008°26'0 0.0
2014-Jul-19 10:33N 55°28' E 008°26'0 0.0
2014-Jul-19 09:32N 55°28' E 008°26'0 0.0
2014-Jul-19 08:33N 55°28' E 008°26'0 0.0
2014-Jul-19 07:33N 55°28' E 008°26'0 0.0
2014-Jul-19 06:28N 55°28' E 008°26'0 0.0
2014-Jul-19 05:32N 55°28' E 008°26'0 0.0
2014-Jul-19 04:33N 55°28' E 008°26'0 0.0
2014-Jul-19 03:33N 55°28' E 008°26'0 0.0
2014-Jul-19 02:33N 55°28' E 008°26'0 0.0
2014-Jul-19 01:33N 55°28' E 008°26'0 0.1
2014-Jul-19 00:33N 55°27' E 008°26'5 4.8
2014-Jul-18 23:33N 55°27' E 008°18'7 7.4
2014-Jul-18 22:33N 55°24' E 008°05'8 8.0
2014-Jul-18 21:33N 55°25' E 007°51'8 7.6
2014-Jul-18 20:33N 55°27' E 007°38'7 7.2
2014-Jul-18 19:33N 55°31' E 007°28'7 7.4
2014-Jul-18 18:33N 55°38' E 007°22'9 8.0
2014-Jul-18 17:26N 55°46' E 007°18'7 8.4
2014-Jul-18 16:33N 55°54' E 007°14'132 8.6
2014-Jul-18 01:09N 58°00' E 006°05'9 8.4
2014-Jul-18 00:05N 58°09' E 005°60'4 8.2
2014-Jul-17 23:33N 58°13' E 005°58'8 8.2
2014-Jul-17 22:33N 58°21' E 005°54'7 6.9
2014-Jul-17 21:33N 58°28' E 005°54'1 0.9
2014-Jul-17 20:33N 58°28' E 005°55'0 0.0
2014-Jul-17 19:33N 58°28' E 005°55'0 0.0
2014-Jul-17 18:33N 58°28' E 005°55'0 0.0
2014-Jul-17 17:33N 58°28' E 005°55'4 3.6
2014-Jul-17 16:33N 58°28' E 005°48'20 9.1
2014-Jul-17 14:19N 58°44' E 005°25'6 8.6
2014-Jul-17 13:33N 58°51' E 005°23'9 8.6
2014-Jul-17 12:34N 58°59' E 005°19'8 8.3
2014-Jul-17 11:34N 59°07' E 005°20'8 8.4
2014-Jul-17 10:33N 59°16' E 005°20'8 8.3
2014-Jul-17 09:34N 59°24' E 005°17'0 0.3
2014-Jul-17 08:34N 59°24' E 005°16'4 3.7
2014-Jul-17 07:33N 59°20' E 005°19'10 9.9
2014-Jul-17 06:33N 59°11' E 005°21'8 7.7
2014-Jul-17 05:33N 59°03' E 005°16'9 9.0
2014-Jul-17 04:34N 58°58' E 005°02'311 6.4
2014-Jul-15 04:21N 56°23' W 003°21'7 8.2
2014-Jul-15 03:28N 56°24' W 003°08'10 9.2
2014-Jul-15 02:21N 56°27' W 002°50'6 7.4
2014-Jul-15 01:33N 56°27' W 002°40'  
Track history (hours):
 
Tides and Currents Weather Stations Pressure Air Temp Water Temp Dewpoint Dewpoint Depression Visibility Wind Speed Wind Dir Waves Ship Positions

Vestborg

Last reported at 2014-Jul-25 01:22 UTC. Time now 2014-Aug-02 08:45 UTC.
Position N 67°44' E 014°31'.
Warning: this ship's position is 8 days out of date.

Length 66 m; draft 3.5 m.

Type: Cargo ship. MMSI: 518120000.

Date/timePositionNaut miles runAvg speedWind from/ knotsBaromVisibWave heightAir tempDewpointWater temp
2014-Jul-25 01:22N 67°44' E 014°31'7 9.0
2014-Jul-25 00:33N 67°37' E 014°31'9 9.0
2014-Jul-24 23:33N 67°28' E 014°28'9 8.7
2014-Jul-24 22:33N 67°20' E 014°20'9 8.8
2014-Jul-24 21:34N 67°13' E 014°08'18 1.5
2014-Jul-24 09:05N 66°59' E 013°36'27 3.1
2014-Jul-24 00:16N 66°36' E 013°00'0 0.1
2014-Jul-23 21:08N 66°36' E 012°60'4 5.4
2014-Jul-23 20:23N 66°32' E 012°59'7 8.7
2014-Jul-23 19:34N 66°25' E 012°59'20 8.3
2014-Jul-23 17:06N 66°05' E 012°42'6 8.5
2014-Jul-23 16:21N 66°00' E 012°32'46 7.7
2014-Jul-23 10:21N 65°17' E 011°58'8 8.5
2014-Jul-23 09:22N 65°09' E 011°50'8 8.4
2014-Jul-23 08:27N 65°02' E 011°43'8 8.3
2014-Jul-23 07:33N 64°57' E 011°29'9 8.8
2014-Jul-23 06:33N 64°51' E 011°14'56712.5
2014-Jul-21 09:18N 55°36' E 007°24'30152.1
2014-Jul-21 03:31N 60°29' E 005°15'10 8.2
2014-Jul-21 02:18N 60°19' E 005°12'49 8.2
2014-Jul-20 20:18N 59°30' E 005°13'15 8.5
2014-Jul-20 18:30N 59°15' E 005°21'8 8.9
2014-Jul-20 17:33N 59°07' E 005°22'8 8.4
2014-Jul-20 16:33N 58°58' E 005°20'9 9.5
2014-Jul-20 15:33N 58°49' E 005°23'10 9.9
2014-Jul-20 14:33N 58°39' E 005°28'1010.3
2014-Jul-20 13:33N 58°30' E 005°36'10 9.7
2014-Jul-20 12:33N 58°22' E 005°47'9 9.3
2014-Jul-20 11:33N 58°15' E 005°58'53 8.5
2014-Jul-20 05:23N 57°23' E 006°18'9 8.4
2014-Jul-20 04:22N 57°15' E 006°23'11310.0
2014-Jul-19 17:04N 55°30' E 007°34'8 9.0
2014-Jul-19 16:13N 55°26' E 007°46'7 8.7
2014-Jul-19 15:21N 55°25' E 007°59'16 3.7
2014-Jul-19 11:07N 55°28' E 008°26'0 0.0
2014-Jul-19 10:33N 55°28' E 008°26'0 0.0
2014-Jul-19 09:32N 55°28' E 008°26'0 0.0
2014-Jul-19 08:33N 55°28' E 008°26'0 0.0
2014-Jul-19 07:33N 55°28' E 008°26'0 0.0
2014-Jul-19 06:28N 55°28' E 008°26'0 0.0
2014-Jul-19 05:32N 55°28' E 008°26'0 0.0
2014-Jul-19 04:33N 55°28' E 008°26'0 0.0
2014-Jul-19 03:33N 55°28' E 008°26'0 0.0
2014-Jul-19 02:33N 55°28' E 008°26'0 0.0
2014-Jul-19 01:33N 55°28' E 008°26'0 0.1
2014-Jul-19 00:33N 55°27' E 008°26'5 4.8
2014-Jul-18 23:33N 55°27' E 008°18'7 7.4
2014-Jul-18 22:33N 55°24' E 008°05'8 8.0
2014-Jul-18 21:33N 55°25' E 007°51'8 7.6
2014-Jul-18 20:33N 55°27' E 007°38'7 7.2
2014-Jul-18 19:33N 55°31' E 007°28'7 7.4
2014-Jul-18 18:33N 55°38' E 007°22'9 8.0
2014-Jul-18 17:26N 55°46' E 007°18'7 8.4
2014-Jul-18 16:33N 55°54' E 007°14'132 8.6
2014-Jul-18 01:09N 58°00' E 006°05'9 8.4
2014-Jul-18 00:05N 58°09' E 005°60'4 8.2
2014-Jul-17 23:33N 58°13' E 005°58'8 8.2
2014-Jul-17 22:33N 58°21' E 005°54'7 6.9
2014-Jul-17 21:33N 58°28' E 005°54'1 0.9
2014-Jul-17 20:33N 58°28' E 005°55'0 0.0
2014-Jul-17 19:33N 58°28' E 005°55'0 0.0
2014-Jul-17 18:33N 58°28' E 005°55'0 0.0
2014-Jul-17 17:33N 58°28' E 005°55'4 3.6
2014-Jul-17 16:33N 58°28' E 005°48'20 9.1
2014-Jul-17 14:19N 58°44' E 005°25'6 8.6
2014-Jul-17 13:33N 58°51' E 005°23'9 8.6
2014-Jul-17 12:34N 58°59' E 005°19'8 8.3
2014-Jul-17 11:34N 59°07' E 005°20'8 8.4
2014-Jul-17 10:33N 59°16' E 005°20'8 8.3
2014-Jul-17 09:34N 59°24' E 005°17'0 0.3
2014-Jul-17 08:34N 59°24' E 005°16'4 3.7
2014-Jul-17 07:33N 59°20' E 005°19'10 9.9
2014-Jul-17 06:33N 59°11' E 005°21'8 7.7
2014-Jul-17 05:33N 59°03' E 005°16'9 9.0
2014-Jul-17 04:34N 58°58' E 005°02'311 6.4
2014-Jul-15 04:21N 56°23' W 003°21'7 8.2
2014-Jul-15 03:28N 56°24' W 003°08'10 9.2
2014-Jul-15 02:21N 56°27' W 002°50'6 7.4
2014-Jul-15 01:33N 56°27' W 002°40'  

Dump ship's entire track history